Tiempo Historia de Ushuaia, Argentina

Change the Weather History Date:

Sábado, Febrero 25, 2012

  Actual Average Record
Temperature  
Temperatura media 43 ° F -  
Temperatura máxima 48 ° F 54 ° F 62 ° F (2008)
Temperatura mínima 38 ° F 40 ° F 39 ° F (2007)
Degree Days  
Grados día de calefacción 22    
Moisture  
Punto de rocío 35 ° F    
Average Humidity 73    
Maximum Humidity 87    
Minimum Humidity 54    
Precipitación  
Precipitación 0.00 pul 0.07 pul - ()
Presión al nivel del mar  
Presión al nivel del mar 29.98 pul    
Viento  
Velocidad del viento 5 mph ()    
Velocidad máxima del viento 10 mph    
Max Gust Speed -    
Visibilidad 8.0 Millas    
Eventos      
Averages and records for this station are not official NWS values.
T = Trace of Precipitation, MM = Missing Value Source: Averaged Metar Reports

Daily Weather History Graph

Daily Weather History Graph

Search for Another Location

Airport:

Trip Planner

Search our weather history database for the weather conditions in past years. The results will help you decide how hot, cold, wet, or windy it might be!

Date:

Astronomía

Feb. 25, 2012 Salida Puesta
Hora real 6:46 AM ART 8:44 PM ART
Crepúsculo civil 6:08 AM ART 9:22 PM ART
Crepúsculo náutico 5:19 AM ART 10:11 PM ART
Crepúsculo astronómico 4:22 AM ART 11:06 PM ART
Luna 11:16 AM ART (2/25) 9:17 PM ART (2/25)
Horas de luz 15h 14m
Horas de luz
13h 57m
Creciente, 13% of the Moon is Illuminated
Feb 25
Creciente
Feb 29
Cuarto creciente
Mar 8
Luna llena
Mar 14
Cuarto menguante
Mar 22
Nueva

Hourly Weather History & Observations

Hora (ART) Temp. Vientos helados Punto de rocío Humedad Presión Visibilidad Wind Dir Velocidad del viento Velocidad de ráfagas Precip Eventos Condiciones
6:00 AM 41.0 ° F 37.1 ° F 28.4 ° F 61% 30.01 pul - ONO 5.8 mph - N/A   Muy nublado
7:00 AM 41.0 ° F 37.1 ° F 33.8 ° F 76% 30.01 pul 6.2 mi Oeste 5.8 mph - N/A   Muy nublado
8:00 AM 41.0 ° F 35.8 ° F 35.6 ° F 81% 30.01 pul 6.2 mi ONO 8.1 mph - N/A   Muy nublado
9:00 AM 41 ° F - 36 ° F 74% 30.03 pul 16 mi SO 9.2 mph - -   Nublado
9:00 AM 41.0 ° F 35.2 ° F 35.6 ° F 81% 30.01 pul 6.2 mi SO 9.2 mph - N/A   Muy nublado
10:00 AM 41.0 ° F 37.1 ° F 35.6 ° F 81% 30.01 pul 6.2 mi SO 5.8 mph - N/A   Muy nublado
11:00 AM 42.8 ° F 39.3 ° F 35.6 ° F 76% 30.01 pul 6.2 mi SSO 5.8 mph - N/A   Muy nublado
12:00 PM 42.8 ° F 40.1 ° F 37.4 ° F 81% 30.01 pul 6.2 mi SSO 4.6 mph - N/A   Nubes dispersas
1:00 PM 48.2 ° F - 39.2 ° F 71% 29.98 pul 6.2 mi SE 5.8 mph - N/A   Muy nublado
2:00 PM 46.4 ° F 45.2 ° F 35.6 ° F 66% 29.98 pul 6.2 mi SE 3.5 mph - N/A   Nublado
3:00 PM 46 ° F - 35 ° F 54% 29.98 pul 19 mi NE 4.6 mph - -   Nublado
3:00 PM 46.4 ° F 44.3 ° F 35.6 ° F 66% 29.98 pul 6.2 mi NE 4.6 mph - N/A   Nublado
4:00 PM 44.6 ° F 43.1 ° F 35.6 ° F 71% 29.98 pul 6.2 mi SE 3.5 mph - N/A   Nublado
5:00 PM 44.6 ° F 40.7 ° F 35.6 ° F 71% 29.95 pul 6.2 mi SO 6.9 mph - N/A   Nublado
6:00 PM 44.6 ° F 40.2 ° F 35.6 ° F 71% 29.95 pul 6.2 mi SO 8.1 mph - N/A   Muy nublado
7:00 PM 44.6 ° F 42.2 ° F 35.6 ° F 71% 29.95 pul 6.2 mi SO 4.6 mph - N/A   Muy nublado
8:00 PM 44.6 ° F 40.7 ° F 35.6 ° F 71% 29.92 pul 6.2 mi SE 6.9 mph - N/A   Muy nublado
9:00 PM 43 ° F - 35 ° F 63% 29.95 pul 19 mi SE 10.4 mph - -   Muy nublado
9:00 PM 42.8 ° F 37.0 ° F 33.8 ° F 70% 29.95 pul 6.2 mi SE 10.4 mph - N/A   Muy nublado
10:00 PM 42.8 ° F - 37.4 ° F 81% 29.95 pul 6.2 mi Sin viento Sin viento - N/A   Llovizna
11:00 PM 41.0 ° F - 37.4 ° F 87% 29.95 pul 6.2 mi Sin viento Sin viento - N/A   Llovizna